Rbgn^[z[y[W
メイン
   新天体発見情報
     Comet P/2007 T4 = 2019 R2 (Gibbs)
投稿するにはまず登録を

スレッド表示 | 新しいものから 前のトピック | 次のトピック | 下へ
投稿者 スレッド
佐藤裕久
投稿日時: 2019-9-24 19:33
モデレータ
登録日: 2005-6-12
居住地: 日本
投稿: 2023
オンライン
Comet P/2007 T4 = 2019 R2 (Gibbs)

Comet P/2007 T4 = 2019 R2 (Gibbs)
 
佐藤英貴氏(東京都文京区)の通報によると、9月5.48日UT、iTelescope 天文台 (Mayhill, NM)の0.43-m 
f/6.8アストログラフで得たスタックCCD露出から、P/2007 T4 (Gibbs)を検出した。
この彗星は、強い集光のあるかすかな10"のコマとp.a. 280-340°に扇状のような20" の尾がある。5".7
の円形範囲で測定した光度は18.7等であった。
T. ChenとD. W. E. Green (Ngari, Tibet, 中国, 0.3-m f/7.2 反射望遠鏡)は、BIST サーベイのコース
で確認した。9月6.94日、16スタックBISTの露出では、集光はなく約6"のコマ(シーイングは3")と南東/
北西に向かって伸びているようである。スタックされた画像でも非常にかすかである。9月7.95日、25
スタックBISTの露出では、集光はなく約6"のコマは見たところp.a. 約320/140°に沿って伸びていた。
8"で測定した光度は19.6-19.7等であった。
中野主一氏のICQ Comet Handbook 2019 (およびNK 1629)の予報に対しDelta(T)は、-0.02 dayであった。
MPC 102106のB. G. Marsdenの予報に対するDelta(T)、も-0.02 dayであった。

検出位置は次のとおり、

     2019 UT             R.A. (2000) Decl.       Mag.   Observer
     Sept. 5.47589    8 16 11.30   +36 25 24.9          Sato
           5.47860    8 16 11.74   +36 25 24.8            "
           5.48130    8 16 12.23   +36 25 24.9   18.7     "
           6.93756    8 20 20.34   +36 23 30.0   19.6   Chen
           6.94298    8 20 21.15   +36 23 30.2   19.3     "
           7.95043    8 23 12.25   +36 22 00.5   19.7     "
           7.95254    8 23 12.61   +36 21 59.7   19.6     "

MPCの連結軌道要素と位置推算表は次のとおり、

Orbital elements:
    P/2007 T4 (Gibbs)                                                           
Epoch 2007 Aug. 8.0 TT = JDT 2454320.5                                          
T 2007 July 20.72503 TT                                 Williams                
q   2.0088348            (2000.0)            P               Q                  
n   0.08191550     Peri.   42.51822     +0.21296563     -0.94588521             
a   5.2507981      Node    37.22922     +0.75180558     -0.00141128             
e   0.6174230      Incl.   23.87179     +0.62404648     +0.32449835             
P  12.0                                                                         
>From 69 observations 2007 Oct. 12-2019 Sept. 8, mean residual 0".6.             
                                                                                
    P/2007 T4 (Gibbs)                                                           
Epoch 2019 July 16.0 TT = JDT 2458680.5                                         
T 2019 July 23.63506 TT                                 Williams                
q   2.0050210            (2000.0)            P               Q                  
n   0.08193613     Peri.   42.42371     +0.21727466     -0.94518493             
a   5.2499169      Node    37.05892     +0.75131917     +0.00251745             
e   0.6180852      Incl.   23.85877     +0.62314623     +0.32652582             
P  12.0                                                                         
From 69 observations 2007 Oct. 12-2019 Sept. 8, mean residual 0".6.             
                                                                                
    P/2007 T4 (Gibbs)                                                           
Epoch 2031 Aug. 2.0 TT = JDT 2463080.5                                          
T 2031 July 28.83824 TT                                 Williams                
q   2.0058082            (2000.0)            P               Q                  
n   0.08185564     Peri.   42.32793     +0.22118591     -0.94452789             
a   5.2533577      Node    36.91352     +0.75092539     +0.00610872             
e   0.6181855      Incl.   23.84282     +0.62224421     +0.32837440             
P  12.0                                                                         
From 69 observations 2007 Oct. 12-2019 Sept. 8.                                 
                                                                                
    P/2007 T4 (Gibbs)                                                           
Epoch 2019 Apr. 27.0 TT = JDT 2458600.5                                         
T 2019 July 23.64387 TT                                 Williams                
q   2.0050036            (2000.0)            P               Q                  
n   0.08194704     Peri.   42.42697     +0.21721363     -0.94519678             
a   5.2494506      Node    37.05946     +0.75131684     +0.00246173             
e   0.6180546      Incl.   23.85933     +0.62317032     +0.32649194             
P  12.0                                                                         
From 69 observations 2007 Oct. 12-2019 Sept. 8, mean residual 0".6.             
                                                                                
Ephemeris:
Date    TT    R. A. (2000) Decl.     Delta      r    Elong.  Phase   m1
2019 08 10    06 58 42.9 +36 02 15   2.7294  2.0119    36.8    17.6  18.7
...
2019 08 25    07 43 00.7 +36 29 40   2.6586  2.0286    42.3    19.6  18.7
...
2019 09 02    08 06 14.4 +36 28 48   2.6207  2.0415    45.3    20.6  18.7
...
2019 09 08    08 23 20.2 +36 21 57   2.5922  2.0530    47.6    21.3  18.7
2019 09 09    08 26 09.3 +36 20 20   2.5874  2.0551    48.0    21.4  18.7
2019 09 10    08 28 57.7 +36 18 36   2.5826  2.0572    48.4    21.5  18.7
...
2019 09 16    08 45 35.2 +36 05 40   2.5537  2.0706    50.8    22.1  18.7
...
2019 09 24    09 07 05.8 +35 42 41   2.5147  2.0906    54.1    22.9  18.7
...
2019 10 09    09 45 02.3 +34 47 59   2.4391  2.1346    60.6    24.1  18.7

     This comet has been recovered by H. Sato (H06), who described the object
as strongly condensed, with a 10" coma and a faint, fan-like 20" tail in P.A.
280-340.  Confirmation of the recovery and cometary nature was made by Chen
et al. (N55) as follows:

OC  Observers      Coma    Tail
N55 Chen et al.     6"     Possible elongation to SE/NW     16 x 40s
N55 Chen et al.     6"     Elongated in P.A. ~320/140       25 x 40s
N55 Chen et al.     4"     ~7" in P.A. ~300                 18 x 40s

(CBET 4662、MPEC 2019-R84)

スレッド表示 | 新しいものから 前のトピック | 次のトピック | トップ

投稿するにはまず登録を
 
© 1999 Tsutomu Seki.